DW2070 Weather Reports


Display with metric or nautical units.
time (UTC)temp
F
wind
direction
speed
MPH
gust
MPH
rain 1hr
in
rain 24hr
in
rain mn
in
humidity
%
barometer
mb
20260502202004 71 247 6.0 12.0 0.00 0.00 0.00 68 1013.8
20260502201004 70 253 6.0 18.0 0.00 0.00 0.00 68 1013.8
20260502200025 71 255 5.0 13.0 0.00 0.00 0.00 66 1013.9
20260502195004 71 264 6.0 14.0 0.00 0.00 0.00 68 1014.2
20260502194004 71 257 5.0 12.0 0.00 0.00 0.00 69 1014.3
20260502193004 70 270 5.0 11.0 0.00 0.00 0.00 68 1014.4
20260502192004 70 249 5.0 12.0 0.00 0.00 0.00 68 1014.4
20260502191004 70 263 4.0 11.0 0.00 0.00 0.00 68 1014.6
20260502190004 70 253 4.0 12.0 0.00 0.00 0.00 68 1014.6
20260502185004 71 269 3.0 9.0 0.00 0.00 0.00 67 1014.8
20260502184004 71 278 3.0 8.0 0.00 0.00 0.00 67 1014.9
20260502183024 70 283 3.0 8.0 0.00 0.00 0.00 68 1015.0
20260502182004 69 301 2.0 8.0 0.00 0.00 0.00 69 1014.9
20260502181004 68 5 2.0 4.0 0.00 0.00 0.00 71 1015.0
20260502164004 62 344 2.0 5.0 0.00 0.00 0.00 81 1015.6
20260502163003 61 348 2.0 5.0 0.00 0.00 0.00 81 1015.7
20260502162003 61 355 1.0 5.0 0.00 0.00 0.00 82 1015.6
20260502161025 61 358 2.0 4.0 0.00 0.00 0.00 83 1015.6
20260502152003 58 78 3.0 7.0 0.00 0.00 0.00 88 1015.2
20260502123003 57 0 0.0 0.0 0.00 0.00 0.00 89 1014.3
20260502122003 57 0 0.0 0.0 0.00 0.00 0.00 89 1014.3
20260502121003 57 0 0.0 0.0 0.00 0.00 0.00 89 1014.2
20260502115003 57 179 1.0 5.0 0.00 0.00 0.00 89 1014.2
20260502114003 57 161 1.0 5.0 0.00 0.00 0.00 89 1014.1
20260502113003 56 143 1.0 4.0 0.00 0.00 0.00 89 1014.1
20260502112003 56 142 0.0 3.0 0.00 0.00 0.00 89 1014.1
20260502111024 56 0 0.0 1.0 0.00 0.00 0.00 88 1013.9
20260502110024 55 0 0.0 0.0 0.00 0.00 0.00 88 1013.9
20260502105003 55 0 0.0 0.0 0.00 0.00 0.00 88 1013.8
20260502104003 55 142 1.0 3.0 0.00 0.00 0.00 88 1013.7
20260502101003 55 0 0.0 0.0 0.00 0.00 0.00 88 1013.6
20260502091003 55 0 0.0 2.0 0.00 0.00 0.00 86 1013.5
20260502071004 57 0 0.0 0.0 0.00 0.00 0.00 85 1014.1
20260502064004 58 112 1.0 3.0 0.00 0.00 0.00 84 1013.9
20260502063004 58 112 1.0 3.0 0.00 0.00 0.00 84 1013.8
20260502062004 58 112 1.0 2.0 0.00 0.00 0.00 84 1013.9
20260502061025 58 112 2.0 3.0 0.00 0.00 0.00 84 1013.8
20260502060004 58 111 2.0 4.0 0.00 0.00 0.00 84 1013.8
20260502055004 58 100 2.0 5.0 0.00 0.00 0.00 84 1013.9
20260502054005 58 133 2.0 5.0 0.00 0.00 0.00 83 1014.0
20260502053004 59 187 1.0 4.0 0.00 0.00 0.00 83 1014.1
20260502052004 59 187 2.0 4.0 0.00 0.00 0.00 83 1014.2
20260502051004 59 187 2.0 5.0 0.00 0.00 0.00 82 1014.2
20260502050004 59 189 1.0 6.0 0.00 0.00 0.00 82 1014.3
20260502044004 60 220 1.0 4.0 0.00 0.00 0.00 82 1014.2
20260502043004 60 0 0.0 4.0 0.00 0.00 0.00 82 1014.1
20260502042004 60 0 0.0 0.0 0.00 0.00 0.00 82 1014.0
20260502041004 60 235 1.0 3.0 0.00 0.00 0.00 81 1013.9
20260502040004 60 247 2.0 6.0 0.00 0.00 0.00 81 1013.9
20260502035025 60 291 1.0 3.0 0.00 0.00 0.00 80 1013.8
20260502034004 60 270 2.0 5.0 0.00 0.00 0.00 80 1013.6
20260502033004 60 257 2.0 8.0 0.00 0.00 0.00 79 1013.4
20260502032004 61 260 2.0 8.0 0.00 0.00 0.00 79 1013.4
20260502031004 61 263 3.0 8.0 0.00 0.00 0.00 78 1013.2
20260502030025 62 244 3.0 8.0 0.00 0.00 0.00 78 1013.2
20260502025004 62 267 3.0 9.0 0.00 0.00 0.00 77 1013.2
20260502024004 62 269 4.0 8.0 0.00 0.00 0.00 77 1013.1
20260502023025 63 252 4.0 11.0 0.00 0.00 0.00 76 1013.1
20260502022025 63 255 4.0 8.0 0.00 0.00 0.00 75 1013.0
20260502021004 64 251 5.0 9.0 0.00 0.00 0.00 74 1013.0
20260502014004 66 248 4.0 11.0 0.00 0.00 0.00 71 1013.0
20260502013004 67 272 4.0 9.0 0.00 0.00 0.00 69 1012.8
20260502012004 67 260 5.0 11.0 0.00 0.00 0.00 67 1012.7
20260502011004 69 262 4.0 10.0 0.00 0.00 0.00 65 1012.7
20260502010004 70 272 5.0 10.0 0.00 0.00 0.00 64 1012.8
20260502005004 70 247 5.0 11.0 0.00 0.00 0.00 64 1012.6
20260502004004 70 251 5.0 13.0 0.00 0.00 0.00 65 1012.7
20260502003004 71 254 6.0 12.0 0.00 0.00 0.00 64 1012.6
20260502002004 71 259 5.0 12.0 0.00 0.00 0.00 62 1012.8
20260502001004 72 259 5.0 10.0 0.00 0.00 0.00 62 1012.8
20260502000004 72 251 6.0 11.0 0.00 0.00 0.00 62 1012.8
20260501235004 72 248 6.0 12.0 0.00 0.00 0.00 63 1013.0
20260501234004 72 247 5.0 15.0 0.00 0.00 0.00 62 1012.9
20260501233004 72 261 7.0 15.0 0.00 0.00 0.00 62 1012.9
20260501232004 72 248 7.0 16.0 0.00 0.00 0.00 62 1012.9
20260501231004 72 241 7.0 16.0 0.00 0.00 0.00 61 1013.0
20260501230004 73 242 6.0 13.0 0.00 0.00 0.00 60 1013.1
20260501225004 72 238 7.0 16.0 0.00 0.00 0.00 61 1013.1
20260501224004 73 253 6.0 14.0 0.00 0.00 0.00 60 1013.1
20260501223004 73 241 6.0 13.0 0.00 0.00 0.00 60 1013.3
20260501222004 73 238 6.0 11.0 0.00 0.00 0.00 60 1013.3
20260501221004 73 245 6.0 13.0 0.00 0.00 0.00 61 1013.4
20260501215004 73 229 6.0 11.0 0.00 0.00 0.00 60 1013.8
20260501214004 74 243 6.0 14.0 0.00 0.00 0.00 59 1013.8
20260501213004 74 239 6.0 14.0 0.00 0.00 0.00 59 1013.9
20260501212004 74 236 7.0 13.0 0.00 0.00 0.00 59 1013.8
20260501211004 74 242 7.0 15.0 0.00 0.00 0.00 60 1013.8
20260501210025 74 241 5.0 14.0 0.00 0.00 0.00 60 1013.8
20260501205004 74 223 5.0 11.0 0.00 0.00 0.00 60 1013.7
20260501204004 74 242 5.0 15.0 0.00 0.00 0.00 60 1013.8
20260501203025 74 231 5.0 10.0 0.00 0.00 0.00 61 1013.8